Temp
87 101 103 97 80 81 75 83 95 90 90 97 99 95 92 93 86 76 100 104 97 91 85 84 80 81 81 80 80 79 79 79 79 79 79 79 79 79 79 79 80 80 81 81 81 81 81 81 81
92 97 98 90 75 71 76 89 86 91 95 98 97 97 95 88 97 96 97 102 97 92 85 84 80 80 81 80 80 79 79 79 79 79 79 79 79 79 79 79 80 80 81 81 81 81 81 81 80
91 97 86 81 77 72 76 84 87 94 96 96 94 99 96 90 98 97 101 102 97 92 90 83 80 80 80 80 80 79 79 79 79 79 79 79 79 79 79 79 80 80 81 81 81 81 80 80 80
94 93 90 75 73 82 84 88 91 92 96 97 97 91 96 100 99 100 103 103 98 96 94 80 79 80 80 80 80 79 79 79 79 79 79 79 79 78 78 79 80 80 81 81 81 80 80 80 80
95 89 76 74 77 84 91 93 93 90 92 94 96 90 89 99 103 102 102 103 100 98 92 84 79 79 80 80 79 79 79 79 79 79 79 79 79 78 78 79 79 80 80 81 80 80 79 79 79
83 87 71 70 77 86 91 95 93 91 93 94 92 92 91 101 101 102 104 102 103 97 89 84 80 79 79 79 79 79 79 79 79 79 79 79 78 78 78 79 79 80 80 80 80 79 79 78 79
79 78 73 75 77 82 89 96 90 90 91 92 97 88 93 97 100 103 103 103 103 99 92 85 83 81 79 78 78 78 78 78 78 78 78 78 78 78 78 78 79 79 79 79 79 78 78 78 78
84 80 73 77 76 78 91 94 94 91 89 98 97 85 84 94 101 103 104 103 103 101 94 88 85 85 83 81 78 78 78 78 78 78 78 78 78 78 78 77 78 79 79 79 78 78 78 78 77
88 72 69 73 75 80 92 90 95 98 92 94 94 93 97 100 102 101 101 102 102 101 96 93 90 87 86 86 81 78 78 78 78 78 78 77 81 79 79 79 78 78 78 78 78 78 78 77 77
79 69 72 83 85 84 89 89 91 89 88 88 90 95 98 100 98 97 98 97 99 99 99 96 91 88 88 92 83 81 82 81 80 81 79 81 81 81 84 82 78 78 78 78 78 78 77 77 77
79 71 80 83 88 87 84 85 90 86 83 88 87 92 96 97 96 96 98 99 100 101 100 97 89 87 89 91 85 84 84 83 82 82 81 80 83 83 84 80 79 77 77 78 77 76 77 78 80
75 80 82 84 88 84 82 87 83 84 85 93 93 94 95 94 94 95 95 98 100 99 95 96 92 87 86 91 87 85 85 84 83 82 81 80 80 80 80 80 80 78 78 76 77 79 78 78 80
77 80 83 86 86 85 86 82 83 84 90 92 92 92 91 91 92 94 95 97 95 94 92 81 84 85 83 84 86 86 84 85 84 83 82 82 81 80 80 80 83 81 81 79 78 79 80 80 82
83 82 82 84 84 84 81 81 83 85 90 89 89 87 89 89 91 91 91 91 92 93 87 82 79 73 82 82 84 84 84 85 85 84 83 82 82 80 81 79 80 80 82 83 81 79 79 79 80
84 77 80 80 82 81 84 76 77 86 88 86 87 88 89 89 90 88 88 88 90 89 93 79 77 69 71 82 83 83 84 87 84 85 82 82 81 80 79 80 79 80 80 82 80 80 80 79 80
76 76 67 78 81 82 80 67 81 88 86 84 85 87 88 90 92 92 92 90 92 89 88 90 90 80 81 83 82 84 84 84 85 85 84 82 81 80 79 78 79 79 80 79 79 78 77 76 77
72 64 68 73 84 83 79 71 81 87 84 82 84 85 86 87 88 88 91 93 92 86 83 85 84 85 84 83 84 84 84 84 84 85 85 83 82 82 80 79 78 78 77 77 77 77 75 74 76
64 67 70 71 80 80 75 74 80 85 84 81 82 84 85 86 87 89 89 90 87 84 83 82 82 81 82 79 83 85 85 85 86 86 85 84 84 82 80 80 78 78 78 77 77 76 77 75 75
73 71 69 75 81 77 74 74 78 82 84 82 83 84 84 85 89 90 90 88 87 84 83 82 81 81 80 79 81 82 81 83 84 85 85 84 83 83 80 81 80 78 78 77 76 75 75 74 76
72 68 67 73 78 75 73 72 77 80 81 83 83 83 84 85 87 89 89 87 83 83 83 83 82 81 80 80 78 80 82 85 86 86 84 84 81 81 81 79 79 79 79 76 76 75 75 74 74
70 66 66 67 73 76 73 67 71 78 81 83 84 85 85 85 85 86 87 82 84 82 82 83 82 82 79 78 77 77 82 81 83 83 85 85 85 82 80 80 78 78 79 77 76 75 74 73 73
63 74 71 69 65 58 72 56 68 75 77 80 82 83 84 85 86 86 83 82 82 83 85 82 81 79 80 77 75 74 75 75 80 83 85 85 84 84 82 80 79 78 80 78 76 77 76 74 71
67 75 71 70 65 63 64 59 65 74 72 77 81 83 83 83 82 82 83 83 84 83 83 82 80 79 78 78 77 75 73 76 78 78 79 81 81 80 84 81 79 78 79 78 77 76 74 76 76
76 70 69 68 64 52 60 60 61 68 73 77 82 83 84 82 81 82 83 83 82 84 82 80 78 77 78 77 76 75 73 73 73 74 75 77 82 77 79 79 79 79 79 78 77 76 75 75 75
69 60 48 47 50 49 64 60 64 74 78 79 78 80 81 81 80 80 81 81 80 80 80 79 76 74 76 76 74 75 74 73 72 73 75 74 78 82 79 79 78 79 78 78 78 76 75 74 75
65 62 52 41 45 52 63 55 62 76 79 80 82 81 80 79 80 80 79 79 80 79 79 77 75 74 75 75 74 75 75 75 75 74 75 76 77 78 78 76 77 76 77 77 77 77 75 75 74
63 58 66 53 55 48 54 61 70 75 74 78 78 78 75 76 78 77 79 79 78 77 77 77 74 74 75 75 73 74 73 73 73 72 72 74 74 78 77 78 75 71 63 69 75 75 74 72 73
66 68 51 53 37 38 51 55 56 63 66 68 71 73 75 76 77 78 79 78 78 78 77 76 76 74 74 73 73 75 72 72 72 71 71 72 73 75 76 77 77 72 71 71 74 73 72 70 69
60 58 58 56 50 37 39 49 68 63 67 68 71 74 75 76 77 78 77 78 79 79 79 76 76 74 73 73 73 71 71 72 71 70 69 69 67 72 75 76 77 76 75 75 70 70 68 67 66
63 58 56 43 42 48 44 44 67 67 70 70 70 73 76 76 77 77 78 78 77 76 77 76 75 75 74 73 73 71 71 71 69 68 67 65 64 63 61 66 74 77 75 70 66 66 69 69 69
MSLP
1007.59 1006.07 1004.90 1003.99 1003.46 1001.58 999.75 997.54 995.78 995.99 996.17 996.53 996.93 997.34 997.48 997.75 998.71 1000.28 1001.53 1001.44 1003.11 1004.75 1005.82 1006.33 1006.75 1007.40 1007.95 1008.58 1009.09 1009.51 1010.01 1010.47 1010.79 1011.11 1011.50 1011.87 1012.17 1012.45 1012.75 1013.01 1013.28 1013.41 1013.56 1013.76 1013.91 1014.04 1014.10 1014.13 1014.14
1007.45 1006.32 1004.82 1003.60 1002.45 1000.47 998.75 997.30 996.30 996.59 996.84 997.38 997.60 997.60 997.59 998.48 999.35 1000.66 1001.52 1002.07 1003.46 1005.01 1005.99 1006.59 1006.98 1007.35 1007.97 1008.61 1009.15 1009.60 1010.07 1010.61 1010.98 1011.29 1011.62 1011.98 1012.33 1012.70 1012.94 1013.21 1013.47 1013.65 1013.78 1014.00 1014.17 1014.23 1014.25 1014.29 1014.50
1007.47 1006.27 1004.90 1002.89 1001.53 999.97 998.60 998.57 997.52 997.09 997.59 997.55 997.53 997.99 998.21 999.37 999.77 1000.86 1001.86 1002.36 1003.78 1004.97 1005.83 1006.76 1007.31 1007.63 1008.09 1008.57 1009.10 1009.67 1010.18 1010.62 1011.01 1011.44 1011.78 1012.06 1012.41 1012.72 1013.11 1013.45 1013.66 1013.79 1013.96 1014.12 1014.25 1014.33 1014.44 1014.49 1014.61
1006.33 1005.11 1004.41 1002.75 1000.80 999.41 998.39 998.08 998.15 997.76 997.95 998.33 998.05 998.11 999.50 1000.06 1000.08 1001.04 1001.86 1002.27 1003.55 1004.69 1005.42 1006.93 1007.43 1007.75 1008.17 1008.60 1009.17 1009.65 1010.11 1010.63 1011.03 1011.47 1011.85 1012.27 1012.58 1012.84 1013.09 1013.37 1013.65 1013.95 1014.10 1014.22 1014.34 1014.50 1014.63 1014.67 1014.75
1005.82 1004.95 1003.55 1002.03 1000.55 999.35 998.21 997.92 998.17 998.21 998.01 998.33 998.68 998.56 999.84 1000.56 1000.84 1001.50 1001.91 1002.25 1002.93 1003.99 1005.36 1006.77 1007.57 1007.91 1008.17 1008.79 1009.11 1009.53 1009.95 1010.49 1011.06 1011.40 1011.77 1012.18 1012.67 1013.02 1013.23 1013.47 1013.67 1013.92 1014.26 1014.40 1014.58 1014.66 1014.76 1014.95 1014.97
1005.17 1004.21 1003.30 1001.71 1000.26 999.03 998.04 997.69 998.46 998.87 998.43 998.82 999.41 999.23 999.95 1000.59 1000.97 1001.51 1001.87 1002.23 1002.67 1003.78 1005.40 1006.56 1007.33 1007.97 1008.26 1008.53 1009.04 1009.47 1009.91 1010.21 1010.71 1011.31 1011.77 1012.11 1012.54 1012.92 1013.28 1013.59 1013.77 1013.90 1014.11 1014.39 1014.61 1014.77 1014.86 1014.97 1015.03
1005.01 1003.83 1002.69 1001.71 1000.25 998.85 997.88 997.76 998.51 998.86 999.08 998.99 999.19 999.77 1000.36 1000.87 1001.47 1001.51 1001.81 1002.29 1002.73 1003.87 1005.19 1006.53 1007.23 1007.91 1008.32 1008.63 1008.94 1009.42 1009.78 1010.15 1010.54 1011.02 1011.52 1012.02 1012.47 1012.87 1013.16 1013.48 1013.80 1014.03 1014.27 1014.40 1014.75 1014.82 1014.85 1014.87 1014.99
1004.91 1004.29 1002.87 1001.54 1000.35 999.23 998.12 997.69 998.36 999.07 999.60 999.85 1000.21 1000.41 1001.21 1001.81 1002.01 1001.88 1001.79 1002.10 1002.61 1003.67 1004.87 1006.29 1007.15 1007.76 1008.27 1008.73 1009.08 1009.29 1009.71 1010.23 1010.55 1011.00 1011.41 1011.74 1012.25 1012.69 1013.04 1013.35 1013.62 1013.93 1014.26 1014.51 1014.55 1014.77 1015.01 1015.03 1015.07
1004.83 1004.17 1002.84 1001.97 1001.05 999.95 998.78 998.31 998.60 999.08 999.80 999.85 1000.61 1000.97 1001.14 1001.61 1001.81 1001.66 1001.49 1001.57 1002.00 1002.91 1004.15 1005.47 1006.75 1007.33 1007.80 1008.21 1009.04 1009.45 1009.67 1009.91 1010.52 1010.85 1011.30 1011.78 1011.99 1012.49 1012.85 1012.89 1013.19 1013.55 1013.79 1014.13 1014.35 1014.59 1014.80 1014.93 1014.99
1004.15 1003.77 1002.62 1001.50 1000.85 1000.15 999.33 999.01 999.05 999.50 1000.00 1000.43 1001.02 1001.35 1001.30 1001.65 1001.95 1001.63 1001.30 1001.39 1001.54 1002.09 1003.07 1004.39 1005.59 1006.53 1007.14 1007.20 1008.17 1009.02 1009.51 1009.77 1009.91 1010.38 1010.82 1011.07 1011.27 1011.59 1012.05 1012.32 1012.95 1013.27 1013.61 1013.87 1014.04 1014.11 1014.41 1014.67 1014.41
1003.79 1003.02 1002.11 1001.59 1000.76 1000.41 1000.63 1000.21 1000.17 1000.17 1000.18 1000.49 1000.91 1001.13 1001.16 1001.29 1001.42 1001.78 1001.49 1001.18 1001.20 1001.61 1002.15 1002.87 1004.34 1005.73 1006.67 1007.01 1007.57 1008.15 1008.63 1009.21 1009.52 1009.71 1010.09 1010.49 1010.55 1010.92 1011.27 1011.87 1012.42 1013.03 1013.17 1013.51 1013.75 1013.94 1013.87 1013.79 1013.61
1003.01 1002.63 1002.15 1001.57 1000.81 1001.00 1001.31 1001.22 1001.09 1001.29 1001.20 1001.03 1001.18 1001.30 1001.19 1001.11 1001.31 1001.55 1001.67 1001.51 1001.07 1001.27 1001.67 1003.23 1003.35 1004.89 1005.95 1006.43 1007.11 1007.78 1008.09 1008.46 1009.09 1009.41 1009.61 1009.79 1010.24 1010.33 1010.50 1011.21 1011.64 1012.10 1012.41 1012.76 1012.94 1013.12 1012.98 1013.03 1012.87
1002.06 1002.09 1001.84 1001.39 1001.18 1001.09 1001.55 1001.45 1001.33 1001.31 1001.38 1001.52 1001.71 1001.71 1001.56 1001.59 1001.69 1001.90 1001.83 1001.66 1001.48 1001.54 1002.18 1002.91 1003.42 1004.62 1005.62 1005.91 1006.27 1006.85 1007.53 1007.78 1008.22 1008.54 1009.24 1009.43 1009.73 1009.70 1010.20 1010.41 1010.59 1010.96 1011.30 1011.89 1012.23 1012.22 1012.43 1012.34 1012.35
1001.38 1001.44 1001.30 1001.34 1000.99 1001.39 1001.32 1001.41 1001.51 1001.39 1001.31 1001.35 1001.58 1002.03 1001.96 1001.85 1001.90 1001.97 1001.93 1001.72 1001.85 1001.89 1002.90 1003.76 1004.40 1005.76 1006.29 1007.53 1005.92 1006.52 1007.02 1007.12 1007.21 1007.73 1008.23 1008.53 1009.09 1009.36 1009.47 1009.92 1010.45 1010.71 1010.47 1010.68 1011.14 1011.44 1011.77 1011.79 1011.99
1001.18 1001.09 1001.22 1001.10 1000.91 1001.09 1001.35 1000.91 1000.75 1000.98 1000.82 1000.77 1001.29 1001.48 1001.72 1001.71 1001.91 1001.77 1001.85 1001.81 1001.95 1002.24 1002.94 1004.29 1004.78 1005.44 1007.19 1006.58 1006.03 1006.49 1006.66 1006.65 1007.12 1007.36 1007.17 1007.97 1008.50 1008.91 1009.14 1009.48 1009.85 1010.07 1009.98 1010.05 1010.40 1010.90 1011.23 1011.71 1011.91
1001.49 1001.35 1000.98 1000.59 1000.35 1000.52 1001.02 1000.23 1000.19 999.73 999.69 1000.29 1000.90 1001.12 1001.11 1001.23 1001.39 1001.55 1001.64 1001.83 1002.04 1002.37 1003.03 1003.30 1003.95 1004.88 1005.35 1005.22 1005.78 1006.42 1006.71 1006.75 1006.83 1006.82 1006.79 1007.43 1007.94 1008.41 1008.91 1009.21 1009.68 1009.59 1009.67 1009.92 1010.28 1010.31 1011.01 1011.40 1011.71
1001.59 1000.97 1000.11 999.47 998.83 998.87 999.69 999.80 999.75 999.52 999.77 1000.18 1000.51 1000.69 1000.99 1001.02 1001.39 1001.62 1001.66 1001.75 1002.11 1002.73 1003.26 1003.72 1004.11 1004.35 1004.77 1004.82 1005.52 1006.02 1006.36 1006.34 1006.31 1006.35 1006.55 1006.74 1007.49 1008.13 1008.73 1009.00 1009.23 1009.35 1009.57 1009.54 1009.72 1010.25 1010.63 1011.43 1011.29
1000.60 999.97 999.43 998.71 998.13 998.51 999.29 999.45 999.56 999.31 999.46 999.91 1000.43 1000.55 1000.74 1000.83 1000.84 1001.15 1001.60 1001.98 1002.39 1003.06 1003.72 1004.15 1004.52 1004.50 1004.75 1005.38 1005.39 1005.39 1005.45 1005.53 1005.58 1005.84 1006.01 1005.98 1006.49 1007.36 1008.01 1008.62 1009.13 1009.29 1009.47 1009.49 1009.21 1009.72 1009.45 1010.21 1010.50
1000.49 999.70 999.08 998.44 998.16 998.41 998.80 999.15 999.09 999.00 999.00 999.17 999.46 999.80 1000.05 1000.40 1000.58 1000.85 1001.20 1001.69 1002.37 1003.13 1004.08 1004.58 1004.77 1004.91 1004.97 1004.92 1004.89 1004.72 1004.75 1004.91 1005.07 1005.29 1005.41 1005.47 1005.67 1006.13 1007.10 1007.81 1008.45 1008.87 1008.91 1008.75 1009.02 1009.38 1009.67 1009.52 1010.09
1000.28 1000.07 999.79 999.57 999.07 999.15 999.09 999.10 999.29 999.16 998.93 998.75 998.86 999.25 999.51 999.89 1000.15 1000.47 1001.01 1001.54 1002.43 1003.13 1003.99 1004.49 1004.82 1005.03 1005.09 1005.03 1004.93 1004.75 1004.15 1003.87 1003.91 1004.13 1004.49 1004.71 1005.09 1005.67 1006.58 1006.81 1007.28 1007.75 1008.26 1008.52 1008.73 1008.83 1008.86 1009.31 1009.45
1000.38 1000.42 1000.42 1000.16 999.88 999.48 999.21 999.11 999.27 998.80 998.49 998.30 998.20 998.54 999.00 999.36 999.75 1000.21 1000.74 1001.77 1002.52 1003.26 1003.69 1004.03 1004.43 1004.83 1005.22 1005.21 1004.99 1004.70 1004.04 1003.59 1003.56 1003.58 1003.46 1003.75 1004.08 1004.64 1005.45 1006.09 1006.32 1006.63 1007.16 1007.34 1007.61 1007.81 1007.84 1008.40 1008.84
1000.51 1000.42 1000.65 1000.63 1000.55 999.89 999.63 998.53 998.17 997.49 996.93 996.86 997.34 997.82 998.45 999.12 999.49 1000.07 1001.13 1002.05 1002.73 1003.36 1003.61 1003.94 1004.37 1004.74 1005.02 1005.25 1005.25 1004.91 1004.62 1004.32 1003.86 1003.41 1003.00 1002.85 1002.83 1002.50 1003.19 1004.16 1004.48 1005.13 1005.62 1006.13 1006.47 1006.89 1007.17 1007.68 1007.86
1000.61 1000.69 1000.61 1000.55 1000.36 1000.23 999.81 999.00 997.95 997.23 996.51 996.20 996.22 996.79 997.74 998.80 999.80 1000.65 1001.48 1002.21 1002.87 1003.40 1003.65 1004.13 1004.57 1004.95 1005.15 1005.01 1004.93 1004.85 1004.71 1004.34 1003.95 1003.60 1003.17 1002.64 1002.08 1002.50 1000.00 1001.75 1001.94 1002.78 1002.91 1003.47 1004.07 1005.08 1005.90 1006.12 1006.73
1000.75 1000.92 1001.04 1001.20 1001.16 1000.21 1000.01 999.08 997.53 996.59 995.63 995.20 994.97 995.83 997.13 998.61 999.99 1000.96 1001.65 1002.45 1003.04 1003.41 1003.87 1004.33 1004.74 1004.86 1004.85 1004.84 1004.67 1004.59 1004.53 1004.47 1004.25 1003.83 1003.44 1002.81 1001.14 1000.74 1000.97 1000.81 1002.26 1000.02 1000.31 1001.84 1003.12 1003.77 1004.24 1004.85 1005.63
1001.54 1002.15 1002.09 1001.66 1000.99 999.67 999.29 998.06 996.58 995.73 995.16 995.54 995.69 996.73 997.67 999.07 1000.13 1001.07 1001.62 1002.33 1002.98 1003.49 1003.96 1004.35 1004.63 1004.87 1004.76 1004.65 1004.53 1004.30 1004.16 1004.10 1003.96 1003.74 1003.22 1002.65 1001.84 1000.35 999.76 999.97 999.92 1000.36 1001.21 1001.06 1002.21 1002.68 1003.82 1004.17 1004.45
1001.30 1001.60 1001.59 1001.19 1000.89 999.80 999.01 997.57 997.05 995.97 996.33 996.50 996.43 997.14 998.15 999.35 1000.15 1000.93 1001.85 1002.55 1003.05 1003.39 1003.80 1004.26 1004.67 1004.78 1004.68 1004.55 1004.33 1003.99 1003.77 1003.75 1003.50 1003.15 1002.76 1002.28 1001.67 1000.89 999.35 998.51 999.19 999.06 998.57 999.87 1001.25 1002.07 1002.78 1003.44 1003.17
1001.29 1001.25 1001.89 1002.18 1002.52 1001.82 1000.72 998.84 997.46 996.59 996.25 996.16 996.97 997.75 998.73 999.74 1000.21 1001.13 1001.99 1002.44 1002.81 1003.21 1003.53 1003.99 1004.44 1004.47 1004.35 1004.21 1004.03 1003.77 1003.74 1003.48 1003.05 1002.73 1002.48 1002.08 1001.60 1000.70 999.93 998.33 998.75 1001.07 1002.43 1004.54 1002.57 1001.27 1001.91 1002.55 1002.44
1001.76 1002.42 1003.08 1004.00 1004.14 1002.67 1000.75 999.25 998.12 997.78 998.13 998.57 998.55 998.66 999.09 999.83 1000.40 1001.09 1001.50 1001.95 1002.49 1002.86 1003.19 1003.51 1003.88 1004.13 1004.27 1004.13 1003.87 1003.48 1003.44 1003.17 1002.81 1002.69 1002.28 1001.73 1001.25 1000.86 1000.28 998.83 998.19 999.92 1000.09 1001.91 1000.91 1000.77 1001.16 1001.61 1002.01
1002.46 1002.67 1003.46 1004.45 1004.91 1004.45 1002.62 1000.49 998.99 999.66 999.24 999.21 999.41 999.35 999.67 999.91 1000.27 1000.62 1001.12 1001.65 1002.07 1002.36 1002.67 1002.85 1003.23 1003.61 1003.80 1003.92 1003.66 1003.51 1003.37 1003.02 1002.73 1002.51 1002.47 1002.29 1001.83 1000.99 1000.07 999.10 998.28 998.19 998.87 999.42 1000.18 1001.32 1000.84 1001.23 1002.32
1003.49 1003.52 1004.19 1005.04 1005.09 1004.57 1003.75 1001.74 1000.73 1000.18 999.97 1000.08 1000.03 999.76 999.91 1000.02 1000.17 1000.61 1000.93 1001.20 1001.53 1001.99 1002.20 1002.40 1002.52 1002.90 1003.22 1003.47 1003.39 1003.32 1003.14 1002.89 1002.73 1002.51 1002.38 1002.55 1002.29 1001.83 1001.80 1000.89 998.98 998.50 997.63 998.05 1000.00 1000.43 1000.71 1001.86 1002.74
Wind_Speed
17 17 13 11 8 8 16 20 20 8 1 8 7 8 12 20 14 7 7 13 23 19 16 17 19 18 18 16 13 13 12 12 12 13 12 11 11 11 10 10 9 9 10 9 8 8 9 10 9
13 18 12 11 12 12 14 17 3 8 15 5 1 8 5 16 17 15 11 16 21 17 13 14 16 18 17 16 14 13 13 11 12 12 12 11 10 9 10 9 8 8 8 8 7 8 8 8 7
16 17 10 9 13 15 9 10 22 10 7 3 1 1 6 10 13 11 12 18 19 16 13 14 14 15 16 16 15 14 12 12 12 12 12 12 11 10 9 7 7 8 8 8 7 7 7 6 6
11 10 9 12 18 21 22 2 10 2 6 3 6 8 9 8 6 12 13 16 17 17 16 17 14 15 15 16 14 14 14 12 13 12 12 11 11 10 9 9 7 6 7 7 7 6 5 5 4
9 8 12 17 19 21 16 8 5 9 4 4 2 7 15 10 12 13 11 13 13 17 18 16 14 13 15 14 15 15 16 15 13 14 13 12 10 9 8 8 7 7 5 5 5 5 4 2 2
10 10 14 15 20 21 18 6 6 9 12 5 6 1 13 13 13 11 10 10 12 17 16 15 16 14 14 15 15 15 15 16 17 15 14 13 12 10 8 7 6 6 7 6 6 5 3 2 1
13 12 17 21 21 21 19 12 9 7 11 5 4 4 11 13 8 5 8 7 12 16 15 13 13 12 13 13 14 14 14 15 15 16 15 14 12 11 9 8 6 6 5 5 5 4 4 3 3
11 11 20 18 17 21 20 8 12 10 12 11 4 4 9 9 3 6 7 11 13 12 18 14 11 12 11 11 13 14 14 13 14 14 14 15 13 12 11 9 8 8 7 6 5 4 4 4 5
12 12 14 18 19 20 20 11 9 11 13 7 2 10 5 7 3 8 10 11 12 13 15 15 14 12 11 11 11 12 14 15 14 14 14 12 8 9 12 12 15 12 11 9 8 6 5 5 8
15 10 19 17 18 14 14 8 14 5 17 10 10 12 14 10 6 9 10 10 12 15 16 16 15 15 13 11 13 11 11 9 10 10 11 8 8 10 11 12 15 14 12 11 10 9 7 7 6
15 17 17 18 20 3 12 14 6 11 12 10 11 14 15 15 12 9 11 11 12 13 11 19 15 13 13 10 9 7 7 7 8 12 11 10 7 6 7 6 7 6 11 6 8 7 6 8 8
19 21 17 20 17 2 10 13 12 12 15 13 12 14 11 12 7 9 10 14 13 10 12 10 16 13 11 7 10 9 8 8 7 8 9 8 6 7 7 7 9 8 7 7 7 6 8 9 8
18 18 18 18 16 12 10 14 14 16 13 11 15 14 13 12 11 9 13 14 7 7 4 11 11 10 7 6 3 8 8 8 8 9 9 8 8 6 5 6 8 10 8 8 6 7 8 6 4
14 19 15 18 14 14 15 16 16 17 16 14 12 12 15 10 11 10 9 8 7 5 9 9 9 14 6 7 5 1 7 7 9 9 10 13 7 8 7 5 5 6 7 9 8 6 5 4 3
13 17 12 15 17 16 16 19 18 16 17 13 14 13 13 13 13 10 7 4 5 5 3 11 12 11 10 10 5 4 4 5 5 8 10 14 10 6 6 6 4 5 5 6 7 5 5 4 4
12 14 17 19 22 21 18 17 18 18 21 18 11 16 12 13 11 10 8 6 0 5 6 1 12 21 26 11 8 6 6 5 8 5 6 13 13 10 6 5 7 5 4 4 3 4 4 5 5
14 15 20 20 20 17 18 15 18 17 3 6 11 10 13 9 9 9 6 3 3 7 8 7 8 7 5 10 9 9 9 7 6 7 6 10 14 12 6 6 5 6 4 5 5 3 4 4 6
18 20 17 16 14 14 13 14 15 13 14 11 13 13 11 12 11 8 9 6 8 8 7 6 5 7 4 3 9 8 8 8 8 9 9 9 12 15 11 8 7 8 7 7 8 9 8 5 5
20 21 16 15 8 13 13 12 15 13 16 15 15 12 12 13 11 8 7 8 7 8 6 5 6 5 4 3 4 7 8 7 8 8 9 10 11 15 15 10 11 7 9 11 8 7 4 3 3
17 17 18 16 18 14 15 17 16 18 18 16 13 13 12 12 13 11 6 5 8 6 5 3 3 5 4 3 4 5 4 8 10 10 12 11 9 14 12 14 12 12 9 10 9 10 6 4 6
16 14 16 18 17 18 15 16 17 19 19 19 16 14 13 11 10 8 4 9 7 5 4 2 2 2 4 6 5 5 6 4 7 6 9 11 14 15 16 16 13 13 13 10 11 10 12 9 5
18 16 17 17 16 14 15 15 18 16 19 18 20 15 11 10 8 5 8 7 6 3 2 5 5 6 5 5 5 7 6 7 8 9 8 10 16 20 20 18 17 16 13 15 12 11 10 8 9
15 15 16 17 15 17 18 14 14 17 17 18 16 17 14 7 10 7 5 4 4 5 3 3 4 3 5 4 4 4 7 8 7 7 11 14 12 20 19 20 19 17 15 17 16 15 15 12 10
14 13 14 15 14 16 18 19 16 17 18 17 15 16 12 13 11 5 3 2 3 5 5 5 5 4 5 6 6 6 6 8 9 10 10 11 9 12 11 17 18 22 18 15 15 15 16 14 14
9 5 8 12 14 15 20 18 16 17 7 4 8 9 10 10 7 4 4 2 4 4 5 4 6 6 6 6 7 7 6 7 9 11 11 11 12 13 16 25 23 16 16 17 14 14 15 16 13
18 17 12 20 15 17 19 16 11 6 6 9 5 8 9 9 5 4 4 5 8 6 4 6 7 8 7 7 8 7 5 6 8 9 10 10 11 13 18 14 17 24 20 14 15 12 12 16 14
14 15 11 11 16 15 15 22 20 18 13 12 9 7 8 4 5 3 5 6 5 6 4 2 6 7 8 7 6 4 8 9 10 11 11 10 12 12 18 23 9 11 12 26 20 12 15 14 13
15 12 8 5 7 17 15 13 11 10 9 2 8 10 7 9 8 6 8 5 5 6 4 5 3 6 9 10 8 5 6 10 10 8 12 12 13 15 17 18 14 15 23 37 23 15 14 13 10
13 14 13 14 13 6 10 9 3 6 8 2 6 6 6 7 8 9 7 8 8 6 9 6 4 5 5 9 6 8 9 7 10 6 9 10 12 15 15 19 18 12 19 19 11 11 5 4 6
17 19 13 10 9 12 11 9 15 12 9 8 12 9 8 9 8 9 9 10 7 8 10 9 5 4 6 8 7 7 7 7 9 9 8 6 9 11 15 23 22 17 10 7 13 10 15 11 22
Wind_Direction
296 301 307 285 255 226 257 256 268 158 125 62 40 317 331 51 34 64 122 112 114 131 134 141 136 137 140 144 143 139 140 141 139 133 129 126 124 124 122 120 116 117 116 116 121 122 118 114 112
294 301 286 262 250 246 243 269 114 334 61 60 232 248 245 70 90 112 112 112 115 131 143 139 138 139 141 145 144 143 144 144 140 135 134 130 129 128 129 130 127 125 122 124 131 130 124 118 116
276 274 282 254 243 246 260 358 302 73 51 297 298 296 31 58 58 97 122 119 119 134 154 132 138 138 141 144 147 146 147 146 143 141 139 138 137 133 133 134 133 136 136 139 142 132 127 129 126
275 269 238 263 263 248 257 222 222 330 133 340 337 102 88 39 60 97 129 133 137 141 148 140 141 141 142 144 147 151 150 150 146 144 141 142 143 140 137 141 143 149 147 148 141 134 141 147 136
250 259 265 252 245 262 280 226 92 259 43 84 320 113 105 90 96 115 136 140 150 142 128 144 138 142 144 148 151 154 155 151 151 149 146 146 144 143 143 146 150 150 150 143 139 139 142 141 134
257 232 248 253 253 257 259 226 158 250 296 123 271 103 108 129 119 134 134 148 149 126 136 145 143 148 151 152 156 158 160 156 153 153 149 147 148 151 152 156 159 156 157 158 157 155 160 155 178
251 247 242 250 262 264 258 176 224 272 268 268 95 212 122 100 70 72 141 146 135 133 132 146 160 157 154 155 155 160 160 159 156 153 149 148 152 155 156 159 159 156 158 160 166 168 177 192 214
242 255 266 263 253 260 273 206 199 231 260 102 78 260 93 89 134 169 224 158 150 146 135 145 165 171 172 167 163 160 160 159 154 153 153 152 155 161 163 158 171 169 169 173 175 184 209 237 248
239 248 246 247 270 278 274 279 221 227 253 280 110 257 329 96 271 213 205 175 171 157 141 149 172 175 186 175 173 163 167 161 160 158 158 152 173 175 174 188 173 175 175 181 183 196 214 236 254
219 225 249 261 242 261 307 277 282 213 253 228 253 275 283 261 258 269 216 226 183 165 163 155 169 171 186 190 161 179 182 185 182 182 174 188 202 175 189 183 168 174 181 184 190 194 207 228 246
221 242 245 241 272 281 304 305 305 275 271 241 258 264 236 250 220 245 263 243 216 193 179 160 161 162 184 213 154 173 185 190 193 195 182 192 197 212 191 152 166 179 185 189 194 197 213 214 231
227 241 248 268 275 190 260 275 280 264 267 275 287 284 291 271 275 255 235 267 267 202 175 193 149 156 178 196 161 172 187 181 190 202 199 186 207 198 179 161 178 184 180 203 184 202 203 218 231
232 249 248 265 265 276 261 267 261 251 256 266 261 284 277 279 277 263 268 274 293 299 99 122 125 161 159 216 195 170 184 182 191 182 200 204 194 200 196 189 192 180 176 190 210 206 199 205 224
233 247 252 265 249 255 250 253 252 250 254 236 242 241 262 264 270 256 261 256 293 315 101 97 76 45 334 228 215 273 180 195 183 185 190 187 205 207 182 193 212 182 194 181 193 192 205 183 218
262 260 257 253 262 245 248 251 251 254 258 223 232 228 240 233 237 251 244 289 250 269 117 143 144 153 204 218 233 219 236 198 211 203 182 187 201 203 196 187 209 217 189 194 174 198 167 169 223
271 246 257 245 230 227 232 256 257 255 222 226 232 254 252 251 245 266 256 235 166 6 9 328 177 184 197 180 180 232 234 222 225 217 187 183 192 197 188 185 206 207 213 190 187 166 171 182 220
229 247 241 242 246 213 211 247 258 243 118 226 248 233 245 238 218 250 282 311 47 34 20 18 20 4 192 177 186 194 215 229 244 217 218 185 188 198 193 212 205 203 205 199 177 179 168 218 226
239 221 233 259 262 187 227 248 247 264 194 214 227 231 243 251 232 197 197 240 98 77 34 8 345 324 338 261 197 205 206 214 218 229 218 193 183 191 196 199 229 200 208 212 186 200 191 192 197
276 287 295 293 243 217 213 243 261 277 270 220 233 231 224 228 236 222 209 162 152 105 77 22 355 331 309 307 263 202 214 223 220 227 226 213 195 188 188 202 202 225 214 208 206 209 206 192 170
259 262 274 279 291 287 275 259 256 253 257 259 248 249 242 233 224 228 216 146 99 118 153 104 43 11 344 296 275 283 253 214 218 209 216 219 177 189 198 197 207 211 222 203 210 199 193 186 179
258 260 270 273 277 269 257 266 262 254 254 256 255 241 242 246 244 224 159 89 82 59 31 340 48 56 10 321 308 300 281 262 271 262 209 205 200 188 195 203 205 211 218 210 203 196 187 192 190
269 248 253 262 267 268 267 269 258 260 232 233 230 225 231 260 267 153 96 88 84 45 345 11 33 27 328 357 328 316 297 292 285 255 259 208 210 199 188 202 198 209 209 215 201 206 202 191 193
253 273 282 275 272 273 262 264 263 259 257 251 227 210 198 129 90 76 75 62 39 13 328 351 55 360 313 283 276 285 295 301 304 282 284 237 208 232 205 199 196 202 209 202 196 195 199 200 197
265 282 273 268 270 258 256 255 258 260 261 258 240 186 184 143 130 128 141 52 318 286 5 349 2 296 292 309 291 277 263 276 289 293 294 293 279 236 221 218 224 208 199 201 202 197 197 201 208
266 237 272 257 242 251 243 244 250 274 346 324 112 124 110 117 128 178 218 221 335 327 304 340 326 319 294 296 283 277 273 272 264 271 276 276 281 286 203 214 207 206 206 199 198 195 198 203 203
246 237 235 258 266 282 304 287 281 352 315 330 246 119 121 138 177 158 26 327 292 302 339 337 315 297 297 292 280 280 275 279 275 267 260 264 268 272 280 255 231 214 197 191 205 197 198 203 208
277 275 288 309 300 284 271 275 282 284 346 212 225 177 139 194 148 122 256 265 316 309 302 308 294 305 288 288 292 304 313 307 267 264 274 281 283 275 269 283 246 185 94 279 225 196 202 213 210
265 288 306 289 279 263 261 279 298 10 1 351 288 296 168 182 206 223 250 304 318 303 303 250 332 303 318 313 304 302 315 294 306 326 289 263 268 273 284 279 270 205 181 212 215 209 206 214 228
261 251 248 239 231 257 284 271 339 133 304 337 303 287 230 239 230 259 326 307 284 288 290 263 230 281 295 293 316 318 320 311 312 329 322 336 347 319 280 278 281 251 221 219 222 240 215 127 310
263 280 240 261 248 253 274 266 309 304 325 297 340 314 280 282 295 306 283 269 272 285 272 291 230 253 283 296 302 305 278 302 310 304 308 314 338 341 347 340 293 267 230 191 173 223 242 213 210